Weather History for K7L2 - March, 2014

Change the Weather History Date:

Thursday, March 27, 2014

  Actual Average (KBIS) Record (KBIS)
Temperature  
Mean Temperature 27 °F 35 °F  
Max Temperature 35 °F 46 °F 81 °F (1946)
Min Temperature 19 °F 24 °F -10 °F (1914)
Degree Days  
Heating Degree Days 38 30  
Month to date heating degree days 973  
Since 1 July heating degree days 7404  
Cooling Degree Days 0 0  
Month to date cooling degree days 0  
Year to date cooling degree days 0  
Moisture  
Dew Point 18 °F    
Average Humidity 70    
Maximum Humidity 100    
Minimum Humidity 41    
Precipitation  
Precipitation 0.00 in 0.03 in 0.87 in (1975)
Month to date precipitation 0.74  
Year to date precipitation 1.68  
Snow  
Snow 0.00 in 0.30 in 7.80 in (1975)
Month to date snowfall 8.1  
Since 1 July snowfall 45.6  
Snow Depth -    
Sea Level Pressure  
Sea Level Pressure 29.72 in    
Wind  
Wind Speed 15 mph (NNE)    
Max Wind Speed 21 mph    
Max Gust Speed 31 mph    
Visibility 10 miles    
Events      
T = Trace of Precipitation, MM = Missing Value Source: NWS Daily Summary

Daily Weather History Graph

Daily Weather History Graph

Search for Another Location

Airport or City:

Trip Planner

Search our weather history database for the weather conditions in past years. The results will help you decide how hot, cold, wet, or windy it might be!

Date:

Astronomy

Mar. 27, 2014 Rise Set
Actual Time 7:30 AM CDT 8:03 PM CDT
Civil Twilight 7:00 AM CDT 8:33 PM CDT
Nautical Twilight 6:24 AM CDT 9:09 PM CDT
Astronomical Twilight 5:47 AM CDT 9:46 PM CDT
Moon 5:33 AM CDT (3/27) 4:43 PM CDT (3/27)
Length of Visible Light 13h 33m
Length of Day
12h 32m
Waning Crescent, 13% of the Moon is Illuminated
Mar 27
Waning Crescent
Mar 30
New
Apr 7
First Quarter
Apr 15
Full
Apr 22
Last Quarter

Hourly Weather History & Observations

Time (CDT) Temp. Windchill Dew Point Humidity Pressure Visibility Wind Dir Wind Speed Gust Speed Precip Events Conditions
12:15 AM 30.2 °F 18.9 °F 26.6 °F 86% 29.48 in 10.0 mi NNE 16.1 mph 20.7 mph N/A   Clear
12:35 AM 28.4 °F 17.0 °F 26.6 °F 93% 29.50 in 10.0 mi NNE 15.0 mph 24.2 mph N/A   Clear
12:55 AM 28.4 °F 16.2 °F 26.6 °F 93% 29.50 in 10.0 mi NNE 17.3 mph 21.9 mph N/A   Clear
1:15 AM 28.4 °F 18.0 °F 26.6 °F 93% 29.50 in 10.0 mi NNE 12.7 mph - N/A   Clear
1:35 AM 28.4 °F 16.6 °F 26.6 °F 93% 29.50 in 10.0 mi NNE 16.1 mph 20.7 mph N/A   Clear
1:55 AM 28.4 °F 17.0 °F 26.6 °F 93% 29.51 in 10.0 mi NNE 15.0 mph 24.2 mph N/A   Clear
2:15 AM 26.6 °F 15.2 °F 26.6 °F 100% 29.52 in 10.0 mi NNE 13.8 mph 19.6 mph N/A   Clear
2:35 AM 26.6 °F 14.3 °F 26.6 °F 100% 29.53 in 10.0 mi NNE 16.1 mph 21.9 mph N/A   Clear
2:55 AM 24.8 °F 12.9 °F 24.8 °F 100% 29.54 in 10.0 mi NNE 13.8 mph 21.9 mph N/A   Clear
3:15 AM 24.8 °F 11.5 °F 24.8 °F 100% 29.55 in 10.0 mi NNE 17.3 mph - N/A   Clear
3:35 AM 24.8 °F 12.4 °F 24.8 °F 100% 29.57 in 10.0 mi North 15.0 mph 19.6 mph N/A   Clear
3:55 AM 24.8 °F 12.4 °F 24.8 °F 100% 29.57 in 10.0 mi NNE 15.0 mph 24.2 mph N/A   Mostly Cloudy
4:15 AM 26.6 °F 15.2 °F 26.6 °F 100% 29.57 in 10.0 mi North 13.8 mph 25.3 mph N/A   Overcast
4:35 AM 26.6 °F 15.2 °F 26.6 °F 100% 29.57 in 10.0 mi North 13.8 mph 19.6 mph N/A   Overcast
4:55 AM 26.6 °F 14.3 °F 26.6 °F 100% 29.58 in 10.0 mi NNE 16.1 mph 21.9 mph N/A   Overcast
5:15 AM 26.6 °F 13.8 °F 26.6 °F 100% 29.58 in 10.0 mi North 17.3 mph 26.5 mph N/A   Overcast
5:35 AM 26.6 °F 15.2 °F 26.6 °F 100% 29.59 in 10.0 mi North 13.8 mph 26.5 mph N/A   Overcast
5:55 AM 26.6 °F 13.8 °F 26.6 °F 100% 29.60 in 10.0 mi NNE 17.3 mph 27.6 mph N/A   Overcast
6:15 AM 26.6 °F 13.8 °F 26.6 °F 100% 29.62 in 10.0 mi North 17.3 mph 25.3 mph N/A   Overcast
6:35 AM 26.6 °F 14.3 °F 26.6 °F 100% 29.63 in 10.0 mi North 16.1 mph 21.9 mph N/A   Overcast
6:55 AM 24.8 °F 11.1 °F 24.8 °F 100% 29.64 in 10.0 mi North 18.4 mph 25.3 mph N/A   Overcast
7:15 AM 24.8 °F 11.1 °F 24.8 °F 100% 29.64 in 10.0 mi North 18.4 mph 23.0 mph N/A   Overcast
7:35 AM 24.8 °F 11.5 °F 24.8 °F 100% 29.66 in 10.0 mi North 17.3 mph 25.3 mph N/A   Overcast
7:55 AM 24.8 °F 11.5 °F 23.0 °F 93% 29.67 in 10.0 mi North 17.3 mph 24.2 mph N/A   Overcast
8:15 AM 24.8 °F 11.1 °F 23.0 °F 93% 29.68 in 10.0 mi North 18.4 mph 24.2 mph N/A   Overcast
8:35 AM 24.8 °F 10.7 °F 23.0 °F 93% 29.69 in 10.0 mi NNE 19.6 mph 27.6 mph N/A   Overcast
8:55 AM 24.8 °F 11.1 °F 23.0 °F 93% 29.70 in 10.0 mi North 18.4 mph 23.0 mph N/A   Overcast
9:15 AM 24.8 °F 11.1 °F 21.2 °F 86% 29.71 in 10.0 mi North 18.4 mph 31.1 mph N/A   Overcast
9:35 AM 24.8 °F 11.5 °F 19.4 °F 80% 29.71 in 10.0 mi North 17.3 mph 27.6 mph N/A   Scattered Clouds
9:55 AM 26.6 °F 13.1 °F 19.4 °F 74% 29.71 in 10.0 mi NNE 19.6 mph 24.2 mph N/A   Clear
10:15 AM 26.6 °F 13.4 °F 17.6 °F 69% 29.73 in 10.0 mi NNE 18.4 mph 29.9 mph N/A   Clear
10:35 AM 26.6 °F 12.7 °F 15.8 °F 64% 29.73 in 10.0 mi NNE 20.7 mph 26.5 mph N/A   Clear
10:55 AM 28.4 °F 15.1 °F 15.8 °F 59% 29.73 in 10.0 mi NNE 20.7 mph 29.9 mph N/A   Clear
11:15 AM 28.4 °F 15.8 °F 15.8 °F 59% 29.74 in 10.0 mi NNE 18.4 mph 31.1 mph N/A   Clear
11:35 AM 30.2 °F 18.1 °F 15.8 °F 55% 29.74 in 10.0 mi NNE 18.4 mph 28.8 mph N/A   Clear
11:55 AM 30.2 °F 18.5 °F 15.8 °F 55% 29.74 in 10.0 mi NNE 17.3 mph 27.6 mph N/A   Clear
12:15 PM 32.0 °F 20.5 °F 15.8 °F 51% 29.75 in 10.0 mi NE 18.4 mph 24.2 mph N/A   Clear
12:35 PM 32.0 °F 21.2 °F 15.8 °F 51% 29.75 in 10.0 mi North 16.1 mph 26.5 mph N/A   Clear
12:55 PM 32.0 °F 20.8 °F 15.8 °F 51% 29.75 in 10.0 mi North 17.3 mph 23.0 mph N/A   Clear
1:15 PM 32.0 °F 20.8 °F 15.8 °F 51% 29.76 in 10.0 mi North 17.3 mph 25.3 mph N/A   Clear
1:35 PM 33.8 °F 23.5 °F 15.8 °F 48% 29.76 in 10.0 mi North 16.1 mph 26.5 mph N/A   Partly Cloudy
1:55 PM 33.8 °F 23.2 °F 15.8 °F 48% 29.77 in 10.0 mi NNE 17.3 mph 24.2 mph N/A   Partly Cloudy
2:15 PM 35.6 °F 26.2 °F 15.8 °F 44% 29.77 in 10.0 mi North 15.0 mph 24.2 mph N/A   Clear
2:35 PM 35.6 °F 26.6 °F 15.8 °F 44% 29.77 in 10.0 mi NNE 13.8 mph 20.7 mph N/A   Clear
2:55 PM 35.6 °F 26.2 °F 15.8 °F 44% 29.78 in 10.0 mi North 15.0 mph 24.2 mph N/A   Clear
3:15 PM 35.6 °F 26.2 °F 15.8 °F 44% 29.78 in 10.0 mi North 15.0 mph 23.0 mph N/A   Clear
3:35 PM 35.6 °F 26.2 °F 15.8 °F 44% 29.78 in 10.0 mi North 15.0 mph 23.0 mph N/A   Clear
3:55 PM 35.6 °F 25.5 °F 15.8 °F 44% 29.78 in 10.0 mi North 17.3 mph 23.0 mph N/A   Clear
4:15 PM 35.6 °F 26.2 °F 15.8 °F 44% 29.78 in 10.0 mi North 15.0 mph 21.9 mph N/A   Clear
4:35 PM 35.6 °F 25.9 °F 15.8 °F 44% 29.79 in 10.0 mi North 16.1 mph 24.2 mph N/A   Clear
4:55 PM 35.6 °F 26.2 °F 15.8 °F 44% 29.79 in 10.0 mi NNE 15.0 mph 19.6 mph N/A   Clear
5:15 PM 35.6 °F 26.6 °F 15.8 °F 44% 29.80 in 10.0 mi North 13.8 mph 21.9 mph N/A   Clear
5:35 PM 33.8 °F 24.3 °F 15.8 °F 48% 29.80 in 10.0 mi NNE 13.8 mph - N/A   Clear
5:55 PM 33.8 °F 24.8 °F 14.0 °F 44% 29.81 in 10.0 mi NNE 12.7 mph - N/A   Clear
6:15 PM 32.0 °F 21.6 °F 12.2 °F 44% 29.81 in 10.0 mi NNE 15.0 mph 19.6 mph N/A   Clear
6:35 PM 32.0 °F 22.1 °F 10.4 °F 41% 29.82 in 10.0 mi North 13.8 mph 18.4 mph N/A   Clear
6:55 PM 32.0 °F 24.2 °F 10.4 °F 41% 29.83 in 10.0 mi NNE 9.2 mph - N/A   Clear
7:15 PM 32.0 °F 22.1 °F 10.4 °F 41% 29.84 in 10.0 mi NNE 13.8 mph 17.3 mph N/A   Clear
7:35 PM 30.2 °F 21.9 °F 10.4 °F 44% 29.85 in 10.0 mi NNE 9.2 mph - N/A   Clear
7:55 PM 28.4 °F 19.7 °F 10.4 °F 47% 29.85 in 10.0 mi NNE 9.2 mph - N/A   Clear
8:15 PM 26.6 °F 19.1 °F 10.4 °F 51% 29.86 in 10.0 mi NNE 6.9 mph - N/A   Clear
8:35 PM 26.6 °F 20.0 °F 10.4 °F 51% 29.87 in 10.0 mi NNE 5.8 mph - N/A   Clear
8:55 PM 24.8 °F 16.9 °F 10.4 °F 54% 29.87 in 10.0 mi NNE 6.9 mph - N/A   Clear
9:15 PM 24.8 °F 15.3 °F 10.4 °F 54% 29.88 in 10.0 mi NE 9.2 mph - N/A   Clear
9:35 PM 24.8 °F 16.9 °F 10.4 °F 54% 29.89 in 10.0 mi NE 6.9 mph - N/A   Clear
9:55 PM 23.0 °F 13.1 °F 10.4 °F 59% 29.90 in 10.0 mi NE 9.2 mph - N/A   Clear
10:15 PM 23.0 °F 13.1 °F 12.2 °F 63% 29.90 in 10.0 mi NE 9.2 mph - N/A   Clear
10:35 PM 23.0 °F 12.4 °F 10.4 °F 59% 29.91 in 10.0 mi NE 10.4 mph - N/A   Clear
10:55 PM 21.2 °F 10.1 °F 10.4 °F 63% 29.92 in 10.0 mi NE 10.4 mph - N/A   Clear
11:15 PM 21.2 °F 10.9 °F 10.4 °F 63% 29.94 in 10.0 mi NE 9.2 mph - N/A   Clear
11:35 PM 19.4 °F 8.6 °F 10.4 °F 68% 29.95 in 10.0 mi NE 9.2 mph - N/A   Clear
11:55 PM 19.4 °F 10.4 °F 10.4 °F 68% 29.96 in 10.0 mi NE 6.9 mph - N/A   Clear